Tracking 30970 objects as of 3-Jul-2025
HD Live streaming from Space Station
objects crossing your sky now

STARLINK-5148

Track STARLINK-5148 now!
10-day predictions
STARLINK-5148 is classified as:


NORAD ID: 53978
Int'l Code: 2022-125Q
Perigee: 546.2 km
Apogee: 547.6 km
Inclination: 53.2 °
Period: 95.4 minutes
Semi major axis: 6917 km
RCS: Unknown
Launch date: October 5, 2022
Source: United States (US)
Launch site: AIR FORCE WESTERN TEST RANGE (AFWTR)
Your satellite tracking list
STARLINK-1879
Track 1 satellite(s)




NASA's NSSDC Master Catalog

Two Line Element Set (TLE):
1 53978U 22125Q   25183.50200748 -.00001206  00000-0 -57724-4 0  9999
2 53978  53.2166 262.1730 0001066  89.8996 270.2118 15.08834043151622
Source of the keplerian elements: AFSPC